Showing default

COSMOS 1261, 12376

Orbit data source: Space-Track

COSMOS 1261, 12376 is a payload satellite owned by PVO (CIS) in HEO that was launched on Tue, 31 Mar 1981 UTC via an MOLNIYA 8K78M launch vehicle from the Plesetsk Missile And Space Complex (PKMTR). Payload-class satellites include a variety of spacecraft equipped with specific instruments for various scientific and technological missions. These include communications satellites like Starlink; space stations such as the ISS; scientific satellites like the Hubble; Earth observation satellites from companies like Planet Labs, Umbra, and HawkEye 360; GPS; miniature CubeSats for education and research; and military/defense satellites.

Loading next visibility...
Identifier
12376, 1981-031A
Orbit
HEO
Country
Flag of CISCIS
Related business
Manufacturer
NPOL/KOMET
Mission
Spacecraft
Bus & Motor
OKO, Unknown motor
Mass
~1,250 kg wet, ~1,150 kg dry
Launch date (UTC)
1981-03-31 (45 years ago)
Launch vehicle
MOLNIYA 8K78M
Launch site
Plesetsk Missile And Space Complex (PKMTR)
Object type
Payload
Rocket body
Debris
Shape & HBR
Unknown
Radar Cross Section
Large (>1 m²)

Expand to show TLE details & history
Last TLE update: 3 days ago

TLE from 3 days ago
0 COSMOS 1261
1 12376U 81031A   25301.49162237  .00000072  00000-0  00000-0 0  9996
2 12376  68.6327 103.1597 5982905 356.6314   0.6107  2.00915726222827
Epoch: 2025-10-28T11:47Z
TLE epoch observation values (Epoch: 2025-10-28T11:47:56.172Z)
Latitude
-0.00004°
Longitude
-110.90958°
Altitude
4,285.18 km
Speed
7.729 km/s
True Right ascension
06h 52m 36s
True Declination
0° 00' 00"
Sunlit
Object was in daylight at epoch
Visualization orbit readout
Latitude
Unknown
Longitude
Unknown
Altitude
Unknown
Speed
Unknown
Apparent Right ascension
Unknown
Apparent Declination
Unknown
Sunlit
N/A
Visualization observer readout
Local Sidereal Time
06:43:10
Azimuth
Unknown
Elevation
Unknown
Doppler factor
Unknown
Orbital elements
Apogee altitude
36,021.875 km
Perigee altitude
4,278.554 km
Semi-major axis
26,528.351 km
Eccentricity
0.59829
Inclination
68.6327°
RAAN
103.1597°
Arg. of periapsis
356.6314°
True anomaly
3.03135°
Mean anomaly
0.6107°
Eccentric anomaly
1.51999°
Mean motion
0.50232 °/min
Orbital period
716.68 mins
BSTAR
0
Loading maneuver chart data...
Computing Atmospheric mass density...
Loading historical data...
Loading historical data...
Loading historical data...
Loading historical data...
Loading historical data...
Loading historical data...
Loading historical data...

Documentation

Showing up to 5 results
|